| time (UTC) | temp F | wind direction | speed knots | gust knots | rain 1hr in | rain 24hr in | rain mn in | humidity % | barometer mb |
| 20260504081737 | 38 | 293 | 0.0 | 0.0 | 0.00 | 0.00 | 0.00 | 84 | 1014.6 |
| 20260504081233 | 38 | 293 | 0.0 | 0.0 | 0.00 | 0.00 | 0.00 | 85 | 1014.6 |
| 20260504080730 | 38 | 293 | 0.0 | 0.0 | 0.00 | 0.00 | 0.00 | 86 | 1014.6 |
| 20260504080226 | 38 | 293 | 0.0 | 0.0 | 0.00 | 0.00 | 0.00 | 86 | 1014.6 |
| 20260504070154 | 40 | 293 | 0.0 | 0.0 | 0.00 | 0.00 | 0.00 | 81 | 1014.4 |
| 20260504060114 | 42 | 293 | 0.0 | 0.0 | 0.00 | 0.00 | 0.00 | 77 | 1014.5 |
| 20260504050542 | 43 | 293 | 0.0 | 0.0 | 0.00 | 0.00 | 0.00 | 75 | 1014.6 |
| 20260504045536 | 43 | 293 | 0.0 | 0.0 | 0.00 | 0.00 | 0.00 | 76 | 1014.7 |
| 20260504045031 | 43 | 293 | 0.0 | 0.0 | 0.00 | 0.00 | 0.00 | 75 | 1014.7 |
| 20260504044529 | 43 | 293 | 0.0 | 0.0 | 0.00 | 0.00 | 0.00 | 76 | 1014.6 |
| 20260504044026 | 43 | 293 | 0.0 | 0.0 | 0.00 | 0.00 | 0.00 | 75 | 1014.7 |
| 20260504043523 | 43 | 293 | 0.0 | 0.0 | 0.00 | 0.00 | 0.00 | 73 | 1014.5 |
| 20260504043021 | 44 | 293 | 0.0 | 0.0 | 0.00 | 0.00 | 0.00 | 73 | 1014.5 |
| 20260504042517 | 44 | 293 | 0.0 | 0.0 | 0.00 | 0.00 | 0.00 | 71 | 1014.6 |
| 20260504042014 | 44 | 293 | 0.0 | 0.0 | 0.00 | 0.00 | 0.00 | 70 | 1014.5 |
| 20260504041510 | 45 | 293 | 0.0 | 0.0 | 0.00 | 0.00 | 0.00 | 69 | 1014.6 |
| 20260504041006 | 45 | 293 | 0.0 | 0.0 | 0.00 | 0.00 | 0.00 | 71 | 1014.5 |
| 20260504040504 | 45 | 293 | 0.9 | 0.9 | 0.00 | 0.00 | 0.00 | 73 | 1014.4 |
| 20260504035959 | 45 | 293 | 0.9 | 0.9 | 0.00 | 0.00 | 0.00 | 71 | 1014.3 |
| 20260504035457 | 45 | 293 | 0.0 | 0.0 | 0.00 | 0.00 | 0.00 | 70 | 1014.4 |
| 20260504034953 | 46 | 293 | 0.9 | 0.9 | 0.00 | 0.00 | 0.00 | 70 | 1014.2 |
| 20260504034451 | 46 | 294 | 0.0 | 0.0 | 0.00 | 0.00 | 0.00 | 66 | 1014.3 |
| 20260504033948 | 46 | 294 | 0.0 | 0.0 | 0.00 | 0.00 | 0.00 | 66 | 1014.5 |
| 20260504033446 | 46 | 294 | 0.0 | 0.0 | 0.00 | 0.00 | 0.00 | 68 | 1014.4 |
| 20260504032943 | 46 | 294 | 0.0 | 0.0 | 0.00 | 0.00 | 0.00 | 66 | 1014.3 |
| 20260504032440 | 46 | 294 | 0.0 | 0.0 | 0.00 | 0.00 | 0.00 | 67 | 1014.1 |
| 20260504031936 | 46 | 294 | 0.0 | 0.0 | 0.00 | 0.00 | 0.00 | 65 | 1014.2 |
| 20260504031433 | 46 | 294 | 0.0 | 0.0 | 0.00 | 0.00 | 0.00 | 68 | 1014.0 |
| 20260504030930 | 46 | 294 | 0.0 | 0.0 | 0.00 | 0.00 | 0.00 | 63 | 1014.2 |
| 20260504030427 | 46 | 294 | 0.0 | 0.0 | 0.00 | 0.00 | 0.00 | 66 | 1014.1 |
| 20260504025923 | 46 | 294 | 0.0 | 0.0 | 0.00 | 0.00 | 0.00 | 66 | 1014.1 |
| 20260504025420 | 47 | 294 | 0.0 | 0.0 | 0.00 | 0.00 | 0.00 | 60 | 1014.2 |
| 20260504024917 | 47 | 294 | 0.0 | 0.0 | 0.00 | 0.00 | 0.00 | 60 | 1014.1 |
| 20260504024414 | 48 | 294 | 0.0 | 0.0 | 0.00 | 0.00 | 0.00 | 60 | 1014.0 |
| 20260504023911 | 48 | 294 | 0.0 | 0.0 | 0.00 | 0.00 | 0.00 | 59 | 1013.9 |
| 20260504023407 | 48 | 294 | 0.0 | 0.0 | 0.00 | 0.00 | 0.00 | 58 | 1014.1 |
| 20260504022903 | 49 | 294 | 0.0 | 0.0 | 0.00 | 0.00 | 0.00 | 55 | 1014.1 |
| 20260504022400 | 49 | 294 | 0.0 | 0.0 | 0.00 | 0.00 | 0.00 | 54 | 1014.1 |
| 20260504021856 | 50 | 294 | 0.0 | 0.0 | 0.00 | 0.00 | 0.00 | 53 | 1014.2 |
| 20260504021354 | 50 | 294 | 0.0 | 0.0 | 0.00 | 0.00 | 0.00 | 54 | 1014.0 |
| 20260504020851 | 51 | 294 | 0.0 | 0.0 | 0.00 | 0.00 | 0.00 | 51 | 1014.0 |
| 20260504020347 | 52 | 294 | 0.0 | 0.0 | 0.00 | 0.00 | 0.00 | 47 | 1014.1 |
| 20260504015843 | 52 | 294 | 0.0 | 0.0 | 0.00 | 0.00 | 0.00 | 44 | 1014.1 |
| 20260504015340 | 52 | 294 | 0.0 | 0.0 | 0.00 | 0.00 | 0.00 | 43 | 1014.0 |
| 20260504014836 | 52 | 294 | 0.0 | 0.0 | 0.00 | 0.00 | 0.00 | 45 | 1013.9 |
| 20260504014332 | 53 | 294 | 0.0 | 0.0 | 0.00 | 0.00 | 0.00 | 45 | 1014.1 |
| 20260504013830 | 53 | 294 | 0.0 | 0.9 | 0.00 | 0.00 | 0.00 | 42 | 1014.1 |
| 20260504013328 | 53 | 294 | 0.0 | 0.9 | 0.00 | 0.00 | 0.00 | 41 | 1013.9 |
| 20260504012824 | 53 | 294 | 0.0 | 0.9 | 0.00 | 0.00 | 0.00 | 41 | 1014.0 |
| 20260504012322 | 54 | 294 | 0.0 | 0.0 | 0.00 | 0.00 | 0.00 | 41 | 1014.0 |
| 20260504011819 | 54 | 294 | 0.0 | 0.9 | 0.00 | 0.00 | 0.00 | 40 | 1013.8 |
| 20260504011316 | 54 | 294 | 0.0 | 0.0 | 0.00 | 0.00 | 0.00 | 40 | 1013.6 |
| 20260504010811 | 54 | 294 | 0.0 | 0.9 | 0.00 | 0.00 | 0.00 | 40 | 1013.8 |
| 20260504010307 | 54 | 294 | 0.0 | 0.0 | 0.00 | 0.00 | 0.00 | 40 | 1013.8 |
| 20260504005804 | 55 | 294 | 0.9 | 0.9 | 0.00 | 0.00 | 0.00 | 39 | 1013.7 |
| 20260504005301 | 55 | 294 | 0.0 | 0.9 | 0.00 | 0.00 | 0.00 | 39 | 1013.6 |
| 20260504004759 | 55 | 294 | 0.0 | 0.9 | 0.00 | 0.00 | 0.00 | 37 | 1013.6 |
| 20260504004256 | 56 | 294 | 0.0 | 0.9 | 0.00 | 0.00 | 0.00 | 37 | 1013.8 |
| 20260504003752 | 56 | 294 | 0.9 | 0.9 | 0.00 | 0.00 | 0.00 | 37 | 1013.6 |
| 20260504003249 | 56 | 294 | 0.9 | 0.9 | 0.00 | 0.00 | 0.00 | 36 | 1013.5 |
| 20260504002745 | 57 | 292 | 1.7 | 2.6 | 0.00 | 0.00 | 0.00 | 36 | 1013.4 |
| 20260504002242 | 57 | 296 | 1.7 | 1.7 | 0.00 | 0.00 | 0.00 | 35 | 1013.4 |
| 20260504001740 | 57 | 294 | 1.7 | 1.7 | 0.00 | 0.00 | 0.00 | 35 | 1013.3 |
| 20260504001237 | 57 | 287 | 1.7 | 1.7 | 0.00 | 0.00 | 0.00 | 34 | 1013.6 |
| 20260504000734 | 58 | 288 | 1.7 | 2.6 | 0.00 | 0.00 | 0.00 | 33 | 1013.2 |
| 20260504000231 | 58 | 289 | 1.7 | 2.6 | 0.00 | 0.00 | 0.00 | 33 | 1013.2 |
| 20260503235729 | 59 | 302 | 1.7 | 5.2 | 0.00 | 0.00 | 0.00 | 32 | 1012.9 |
| 20260503235226 | 59 | 291 | 1.7 | 6.1 | 0.00 | 0.00 | 0.00 | 32 | 1012.9 |
| 20260503234724 | 59 | 284 | 3.5 | 3.5 | 0.00 | 0.00 | 0.00 | 32 | 1012.9 |
| 20260503234222 | 59 | 259 | 3.5 | 6.1 | 0.00 | 0.00 | 0.00 | 31 | 1013.0 |
| 20260503233718 | 60 | 261 | 2.6 | 5.2 | 0.00 | 0.00 | 0.00 | 31 | 1012.8 |
| 20260503233214 | 60 | 280 | 3.5 | 5.2 | 0.00 | 0.00 | 0.00 | 31 | 1013.0 |
| 20260503232711 | 60 | 277 | 1.7 | 6.1 | 0.00 | 0.00 | 0.00 | 30 | 1012.9 |
| 20260503232208 | 60 | 278 | 1.7 | 3.5 | 0.00 | 0.00 | 0.00 | 30 | 1013.0 |
| 20260503231707 | 61 | 283 | 3.5 | 7.8 | 0.00 | 0.00 | 0.00 | 29 | 1013.0 |
| 20260503231203 | 61 | 262 | 5.2 | 7.0 | 0.00 | 0.00 | 0.00 | 29 | 1013.0 |
| 20260503230659 | 61 | 268 | 5.2 | 6.1 | 0.00 | 0.00 | 0.00 | 29 | 1012.9 |
| 20260503230156 | 61 | 282 | 4.3 | 7.8 | 0.00 | 0.00 | 0.00 | 28 | 1012.9 |
| 20260503225653 | 62 | 292 | 1.7 | 7.8 | 0.00 | 0.00 | 0.00 | 29 | 1012.8 |
| 20260503225153 | 62 | 292 | 7.0 | 9.6 | 0.00 | 0.00 | 0.00 | 28 | 1012.6 |
| 20260503224651 | 62 | 280 | 5.2 | 7.0 | 0.00 | 0.00 | 0.00 | 28 | 1012.8 |
| 20260503224149 | 61 | 289 | 3.5 | 6.1 | 0.00 | 0.00 | 0.00 | 29 | 1012.8 |
| 20260503223647 | 61 | 277 | 5.2 | 7.8 | 0.00 | 0.00 | 0.00 | 28 | 1012.8 |
| 20260503223143 | 61 | 280 | 3.5 | 8.7 | 0.00 | 0.00 | 0.00 | 29 | 1013.0 |
| 20260503222640 | 61 | 274 | 6.1 | 11.3 | 0.00 | 0.00 | 0.00 | 28 | 1012.9 |
| 20260503222138 | 62 | 304 | 5.2 | 6.1 | 0.00 | 0.00 | 0.00 | 28 | 1012.8 |
| 20260503221636 | 62 | 281 | 7.8 | 8.7 | 0.00 | 0.00 | 0.00 | 27 | 1012.7 |
| 20260503221133 | 62 | 225 | 2.6 | 5.2 | 0.00 | 0.00 | 0.00 | 28 | 1012.7 |
| 20260503220630 | 62 | 304 | 4.3 | 5.2 | 0.00 | 0.00 | 0.00 | 29 | 1012.8 |
| 20260503220126 | 61 | 297 | 7.0 | 9.6 | 0.00 | 0.00 | 0.00 | 28 | 1012.9 |
| 20260503215624 | 61 | 280 | 8.7 | 11.3 | 0.00 | 0.00 | 0.00 | 28 | 1012.7 |
| 20260503215120 | 61 | 277 | 7.0 | 12.2 | 0.00 | 0.00 | 0.00 | 29 | 1012.9 |
| 20260503214619 | 61 | 275 | 11.3 | 13.0 | 0.00 | 0.00 | 0.00 | 28 | 1012.9 |
| 20260503214114 | 61 | 324 | 8.7 | 9.6 | 0.00 | 0.00 | 0.00 | 28 | 1012.9 |
| 20260503213614 | 61 | 303 | 7.8 | 8.7 | 0.00 | 0.00 | 0.00 | 28 | 1012.7 |
| 20260503213110 | 62 | 290 | 7.0 | 11.3 | 0.00 | 0.00 | 0.00 | 27 | 1012.8 |
| 20260503212608 | 62 | 267 | 7.8 | 9.6 | 0.00 | 0.00 | 0.00 | 28 | 1012.8 |
| 20260503212105 | 61 | 269 | 3.5 | 9.6 | 0.00 | 0.00 | 0.00 | 29 | 1012.5 |
| 20260503211602 | 61 | 260 | 6.1 | 9.6 | 0.00 | 0.00 | 0.00 | 28 | 1012.7 |
| 20260503211057 | 62 | 281 | 7.8 | 12.2 | 0.00 | 0.00 | 0.00 | 27 | 1013.0 |
| 20260503210554 | 61 | 303 | 7.8 | 11.3 | 0.00 | 0.00 | 0.00 | 28 | 1012.9 |
| 20260503210050 | 61 | 283 | 1.7 | 8.7 | 0.00 | 0.00 | 0.00 | 29 | 1012.7 |
| 20260503205547 | 62 | 286 | 6.1 | 7.8 | 0.00 | 0.00 | 0.00 | 28 | 1012.8 |
| 20260503205043 | 62 | 271 | 5.2 | 9.6 | 0.00 | 0.00 | 0.00 | 28 | 1012.7 |
| 20260503204540 | 62 | 294 | 8.7 | 13.0 | 0.00 | 0.00 | 0.00 | 27 | 1012.8 |
| 20260503204037 | 61 | 277 | 5.2 | 6.1 | 0.00 | 0.00 | 0.00 | 29 | 1012.6 |
| 20260503203534 | 61 | 288 | 4.3 | 8.7 | 0.00 | 0.00 | 0.00 | 29 | 1012.8 |
| 20260503203031 | 61 | 276 | 7.8 | 11.3 | 0.00 | 0.00 | 0.00 | 27 | 1012.7 |
| 20260503202529 | 62 | 286 | 9.6 | 13.0 | 0.00 | 0.00 | 0.00 | 29 | 1012.6 |
| 20260503202027 | 61 | 289 | 6.1 | 12.2 | 0.00 | 0.00 | 0.00 | 29 | 1012.7 |
| 20260503201525 | 61 | 288 | 5.2 | 8.7 | 0.00 | 0.00 | 0.00 | 28 | 1013.0 |
| 20260503201022 | 61 | 283 | 8.7 | 11.3 | 0.00 | 0.00 | 0.00 | 28 | 1012.9 |
| 20260503200518 | 62 | 258 | 1.7 | 9.6 | 0.00 | 0.00 | 0.00 | 28 | 1013.2 |
| 20260503200015 | 62 | 299 | 5.2 | 9.6 | 0.00 | 0.00 | 0.00 | 28 | 1013.1 |
| 20260503195512 | 62 | 294 | 3.5 | 7.8 | 0.00 | 0.00 | 0.00 | 28 | 1013.0 |
| 20260503195009 | 61 | 285 | 3.5 | 6.1 | 0.00 | 0.00 | 0.00 | 29 | 1013.1 |
| 20260503194506 | 60 | 280 | 6.1 | 11.3 | 0.00 | 0.00 | 0.00 | 30 | 1013.4 |
| 20260503194000 | 62 | 336 | 3.5 | 12.2 | 0.00 | 0.00 | 0.00 | 31 | 1013.4 |
| 20260503193457 | 60 | 288 | 6.1 | 12.2 | 0.00 | 0.00 | 0.00 | 29 | 1013.3 |
| 20260503192952 | 59 | 283 | 4.3 | 13.9 | 0.00 | 0.00 | 0.00 | 28 | 1013.3 |
| 20260503192449 | 60 | 315 | 4.3 | 7.0 | 0.00 | 0.00 | 0.00 | 30 | 1013.5 |
| 20260503191944 | 60 | 290 | 5.2 | 11.3 | 0.00 | 0.00 | 0.00 | 29 | 1013.7 |
| 20260503191442 | 59 | 310 | 1.7 | 13.0 | 0.00 | 0.00 | 0.00 | 30 | 1013.6 |
| 20260503190938 | 60 | 297 | 6.1 | 11.3 | 0.00 | 0.00 | 0.00 | 29 | 1013.7 |
| 20260503190436 | 59 | 291 | 8.7 | 9.6 | 0.00 | 0.00 | 0.00 | 30 | 1013.9 |
| 20260503185933 | 60 | 293 | 5.2 | 9.6 | 0.00 | 0.00 | 0.00 | 28 | 1013.9 |
| 20260503185429 | 60 | 273 | 5.2 | 7.8 | 0.00 | 0.00 | 0.00 | 30 | 1013.8 |
| 20260503184928 | 58 | 296 | 7.0 | 14.8 | 0.00 | 0.00 | 0.00 | 30 | 1013.9 |
| 20260503184425 | 60 | 287 | 3.5 | 9.6 | 0.00 | 0.00 | 0.00 | 31 | 1014.0 |
| 20260503183922 | 59 | 258 | 3.5 | 13.0 | 0.00 | 0.00 | 0.00 | 30 | 1013.9 |
| 20260503183418 | 59 | 287 | 6.1 | 7.8 | 0.00 | 0.00 | 0.00 | 29 | 1014.0 |
| 20260503182915 | 59 | 289 | 9.6 | 13.0 | 0.00 | 0.00 | 0.00 | 30 | 1014.2 |
| 20260503182414 | 59 | 258 | 3.5 | 11.3 | 0.00 | 0.00 | 0.00 | 32 | 1014.1 |
| 20260503181911 | 57 | 287 | 4.3 | 11.3 | 0.00 | 0.00 | 0.00 | 32 | 1014.2 |
| 20260503181408 | 59 | 285 | 2.6 | 15.6 | 0.00 | 0.00 | 0.00 | 33 | 1014.4 |
| 20260503180904 | 57 | 303 | 3.5 | 7.0 | 0.00 | 0.00 | 0.00 | 35 | 1014.4 |
| 20260503180403 | 57 | 287 | 4.3 | 13.9 | 0.00 | 0.00 | 0.00 | 33 | 1014.6 |
| 20260503175858 | 56 | 296 | 2.6 | 7.0 | 0.00 | 0.00 | 0.00 | 32 | 1014.4 |
| 20260503175357 | 56 | 235 | 1.7 | 7.0 | 0.00 | 0.00 | 0.00 | 33 | 1014.3 |
| 20260503174857 | 55 | 287 | 3.5 | 7.0 | 0.00 | 0.00 | 0.00 | 34 | 1014.5 |
| 20260503174356 | 55 | 298 | 5.2 | 8.7 | 0.00 | 0.00 | 0.00 | 34 | 1014.4 |
| 20260503173856 | 56 | 238 | 4.3 | 8.7 | 0.00 | 0.00 | 0.00 | 33 | 1014.5 |
| 20260503173353 | 57 | 269 | 4.3 | 6.1 | 0.00 | 0.00 | 0.00 | 35 | 1014.5 |
| 20260503172850 | 56 | 286 | 2.6 | 7.0 | 0.00 | 0.00 | 0.00 | 36 | 1014.4 |
| 20260503172348 | 56 | 248 | 5.2 | 7.8 | 0.00 | 0.00 | 0.00 | 34 | 1014.7 |
| 20260503171843 | 55 | 44 | 2.6 | 5.2 | 0.00 | 0.00 | 0.00 | 36 | 1014.7 |
| 20260503171341 | 55 | 15 | 6.1 | 11.3 | 0.00 | 0.00 | 0.00 | 34 | 1014.8 |
| 20260503170838 | 55 | 275 | 8.7 | 12.2 | 0.00 | 0.00 | 0.00 | 33 | 1014.6 |
| 20260503170334 | 55 | 283 | 5.2 | 9.6 | 0.00 | 0.00 | 0.00 | 33 | 1014.8 |
| 20260503150727 | 51 | 246 | 7.0 | 11.3 | 0.00 | 0.00 | 0.00 | 33 | 1015.5 |
| 20260503150223 | 51 | 272 | 5.2 | 9.6 | 0.00 | 0.00 | 0.00 | 35 | 1015.6 |
| 20260503140147 | 49 | 294 | 5.2 | 11.3 | 0.00 | 0.00 | 0.00 | 42 | 1015.8 |
| 20260503131117 | 48 | 293 | 4.3 | 11.3 | 0.00 | 0.00 | 0.00 | 49 | 1015.8 |
| 20260503130614 | 47 | 284 | 3.5 | 7.0 | 0.00 | 0.00 | 0.00 | 49 | 1015.8 |
| 20260503130112 | 47 | 261 | 1.7 | 6.1 | 0.00 | 0.00 | 0.00 | 50 | 1015.9 |
| 20260503110504 | 42 | 283 | 1.7 | 6.1 | 0.00 | 0.00 | 0.00 | 58 | 1015.1 |